Regional Weather Roundup
Issued by NWS

Home | Current Version | Previous Version | Graphics & Text | Print | Product List | Glossary Off
Versions: 1 2 3 4 5 6 7 8 9 10 11 12 13 14 15 16 17 18 19 20 21 22 23 24 25 26 27 28 29 30 31 32 33 34 35 36 37 38 39 40 41 42 43 44 45 46 47 48 49 50

824
ASUS43 KMKX 060020
RWRWI

WISCONSIN REGIONAL WEATHER ROUNDUP
NATIONAL WEATHER SERVICE MILWAUKEE/SULLIVAN WI
600 PM CST FRI FEB 05 2016

NOTE: "FAIR" INDICATES FEW OR NO CLOUDS BELOW 12,000 FEET WITH NO
SIGNIFICANT WEATHER AND/OR OBSTRUCTIONS TO VISIBILITY.

WIZ001-002-006>008-014>016-023>028-060100-
NORTHWEST WISCONSIN

CITY           SKY/WX    TMP DP  RH WIND       PRES   REMARKS
SUPERIOR ARPT  CLOUDY    28  13  54 SW12      30.15F WCI  18
6HR MIN TEMP:  22; 6HR MAX TEMP:  29;

ASHLAND        CLOUDY    26  12  55 SW13      30.16F WCI  15
6HR MIN TEMP:  21; 6HR MAX TEMP:  29;

HAYWARD        CLOUDY    23  11  60 S13       30.17F WCI  11
6HR MIN TEMP:  19; 6HR MAX TEMP:  24;

SIREN          CLOUDY    24  14  65 S8        30.19F WCI  15
6HR MIN TEMP:  21; 6HR MAX TEMP:  27;

CUMBERLAND     MOCLDY    16   9  73 S7        30.19S WCI   6
RICE LAKE      CLEAR     17  10  74 S6        30.21F WCI   9
6HR MIN TEMP:  17; 6HR MAX TEMP:  23;

CHETEK         CLEAR     19  10  70 S5        30.21F WCI  12
6HR MIN TEMP:  18; 6HR MAX TEMP:  23;

LADYSMITH      CLEAR     20  11  68 S5        30.21F WCI  13
6HR MIN TEMP:  17; 6HR MAX TEMP:  24;

EAU CLAIRE     MOCLDY    21  11  65 S8        30.24F WCI  11
6HR MIN TEMP:  17; 6HR MAX TEMP:  24;

MENOMONIE      CLOUDY    21  10  62 SE5       30.24F WCI  15
6HR MIN TEMP:  21; 6HR MAX TEMP:  29;

NEW RICHMOND   CLOUDY    23  15  70 S8        30.21F WCI  14
6HR MIN TEMP:  17; 6HR MAX TEMP:  25;

OSCEOLA        CLOUDY    26  17  66 S10       30.23S WCI  16
6HR MIN TEMP:  19; 6HR MAX TEMP:  27;

$$

WIZ003>005-009-010-017-018-060100-
NORTH CENTRAL WISCONSIN

CITY           SKY/WX    TMP DP  RH WIND       PRES   REMARKS
MANITOWISH WTR CLOUDY    23  10  56 SW8       30.14F WCI  14
6HR MIN TEMP:  17; 6HR MAX TEMP:  25;

ARBOR VITAE    CLOUDY    25  11  55 SW8       30.16S WCI  16
6HR MIN TEMP:  21; 6HR MAX TEMP:  28;

WOODRUFF       CLOUDY    25  11  55 SW8       30.16S WCI  16
6HR MIN TEMP:  21; 6HR MAX TEMP:  28;

RHINELANDER    CLEAR     22   7  52 SW10      30.18S WCI  11
6HR MIN TEMP:  21; 6HR MAX TEMP:  27;

EAGLE RIVER    CLOUDY    25   7  46 SW5       30.15F WCI  19
LAND O LAKES   CLOUDY    25   9  51 S3        30.15S
6HR MIN TEMP:  22; 6HR MAX TEMP:  27;

PHILLIPS       MOCLDY    20  10  65 SW3       30.17F
6HR MIN TEMP:  19; 6HR MAX TEMP:  25;

TOMAHAWK       CLEAR     19   8  60 S3        30.20S
6HR MIN TEMP:  19; 6HR MAX TEMP:  28;

MEDFORD        CLEAR     15  11  83 S7        30.20F WCI   5
6HR MIN TEMP:  15; 6HR MAX TEMP:  22;

MERRILL        CLEAR     20  11  68 SW3       30.23F
6HR MIN TEMP:  20; 6HR MAX TEMP:  26;

$$

WIZ029-030-035-036-043>047-060100-
CENTRAL WISCONSIN

CITY           SKY/WX    TMP DP  RH WIND       PRES   REMARKS
WAUSAU         CLEAR     23  12  62 CALM      30.23S
6HR MIN TEMP:  23; 6HR MAX TEMP:  28;

MOSINEE        CLEAR     19  14  79 S5        30.25F WCI  13
MARSHFIELD     CLOUDY    22  11  62 SW6       30.24S WCI  14
6HR MIN TEMP:  19; 6HR MAX TEMP:  25;

STEVENS POINT  CLOUDY    22  15  73 SW7       30.27S WCI  14
6HR MIN TEMP:  22; 6HR MAX TEMP:  26;

WAUPACA        CLOUDY    25  17  69 S3        30.29S
6HR MIN TEMP:  25; 6HR MAX TEMP:  32;

WAUTOMA        PTCLDY    26  18  72 CALM      30.30F
6HR MIN TEMP:  26; 6HR MAX TEMP:  30;

WISC RAPIDS    CLOUDY    23  14  68 S6        30.28F WCI  16
6HR MIN TEMP:  23; 6HR MAX TEMP:  26;

CAMP DOUGLAS   CLOUDY    26  18  72 SW2       30.28S
6HR MIN TEMP:  23; 6HR MAX TEMP:  30; 6HR PCP:  0.04;

$$

WIZ011>013-019>022-031-037>040-048>050-060100-
NORTHEAST WISCONSIN

CITY           SKY/WX    TMP DP  RH WIND       PRES   REMARKS
ANTIGO         CLEAR     17   8  67 SW8       30.21F WCI   7
6HR MIN TEMP:  16; 6HR MAX TEMP:  24;

SHAWANO        PTCLDY    27  16  62 SW3       30.29R
6HR MIN TEMP:  27; 6HR MAX TEMP:  31;

OCONTO         CLOUDY    24  15  68 CALM      30.29S
6HR MIN TEMP:  23; 6HR MAX TEMP:  27;

STURGEON BAY   CLOUDY    21  10  63 SW7       30.31R WCI  13
6HR MIN TEMP:  21; 6HR MAX TEMP:  25;

GREEN BAY      CLOUDY    20  14  77 S3        30.30S
6HR MIN TEMP:  20; 6HR MAX TEMP:  26;

MANITOWOC      CLOUDY    23  16  74 SW5       30.32S WCI  17
6HR MIN TEMP:  23; 6HR MAX TEMP:  29;

APPLETON       MOCLDY    23  16  74 S7        30.27S WCI  15
CLINTONVILLE   PTCLDY    25  14  63 SW3       30.29S
OSHKOSH        CLOUDY    24  15  68 SW8       30.30S WCI  15
6HR MIN TEMP:  23; 6HR MAX TEMP:  27;

$$

WIZ032>034-041-042-053>061-060100-
SOUTHWEST WISCONSIN

CITY           SKY/WX    TMP DP  RH WIND       PRES   REMARKS
LA CROSSE      CLOUDY    24  13  62 S9        30.29S WCI  14
6HR MIN TEMP:  18; 6HR MAX TEMP:  26;

SPARTA         CLOUDY    23  16  74 CALM      30.30S
6HR MIN TEMP:  22; 6HR MAX TEMP:  27;

VIROQUA        CLOUDY    22  15  72 S5        30.26S WCI  16
6HR MIN TEMP:  21; 6HR MAX TEMP:  25;

BOSCOBEL       CLOUDY    27  17  66 S3        30.32F
6HR MIN TEMP:  26; 6HR MAX TEMP:  30;

PRAIRIE DU CHI CLOUDY    27  15  60 SE5       30.31F WCI  21
6HR MIN TEMP:  24; 6HR MAX TEMP:  28;

PLATTEVILLE    CLOUDY    26  20  80 S5        30.31S WCI  20
6HR MIN TEMP:  26; 6HR MAX TEMP:  28;

$$

WIZ056-057-062-063-064-067-068-060100-
SOUTH CENTRAL WISCONSIN

CITY           SKY/WX    TMP DP  RH WIND       PRES   REMARKS
REEDSBURG      CLOUDY    25  17  71 S3        30.29F
6HR MIN TEMP:  25; 6HR MAX TEMP:  28;

BARABOO/DELLS  CLOUDY    26  17  69 S6        30.29S WCI  19
6HR MIN TEMP:  26; 6HR MAX TEMP:  28;

LONE ROCK      CLOUDY    26  15  63 CALM      30.32F
6HR MIN TEMP:  26; 6HR MAX TEMP:  30;

MINERAL POINT  CLOUDY    28  21  74 CALM      30.29F
MADISON        CLOUDY    27  16  63 VRB3      30.31F
6HR MIN TEMP:  26; 6HR MAX TEMP:  30;

MIDDLETON      CLOUDY    28  19  69 SW6       30.32S WCI  22
6HR MIN TEMP:  28; 6HR MAX TEMP:  32;

WATERTOWN      PTCLDY    27  18  69 S3        30.31F
6HR MIN TEMP:  26; 6HR MAX TEMP:  29;

MONROE         CLOUDY    28  21  74 S3        30.30F
JANESVILLE     CLOUDY    30  21  69 W5        30.33F WCI  25
$$

WIZ051-052-058>065-066-070>072-060100-
SOUTHEAST WISCONSIN

CITY           SKY/WX    TMP DP  RH WIND       PRES   REMARKS
MILWAUKEE      CLOUDY    30  13  49 W5        30.33F WCI  25
6HR MIN TEMP:  29; 6HR MAX TEMP:  32;

WAUKESHA       PTCLDY    27  14  59 SW5       30.33F WCI  21
MILWAUKEE/TIMM PTCLDY    28  14  54 W5        30.34S WCI  23
RACINE         CLOUDY    30  16  56 W6        30.35S WCI  24
6HR MIN TEMP:  29; 6HR MAX TEMP:  32;

BURLINGTON     CLOUDY    27  20  75 CALM      30.33F
6HR MIN TEMP:  27; 6HR MAX TEMP:  30;

KENOSHA        CLOUDY    29  19  66 W5        30.34S WCI  24
6HR MIN TEMP:  28; 6HR MAX TEMP:  32;

FOND DU LAC    CLOUDY    23  15  71 S6        30.31S WCI  16
6HR MIN TEMP:  22; 6HR MAX TEMP:  26; 6HR PCP: TRACE;

SHEBOYGAN        N/A     22  14  71 SW6       30.32S WCI  14
6HR MIN TEMP:  22; 6HR MAX TEMP:  26;

WEST BEND      CLOUDY    27  16  63 CALM      30.31F
JUNEAU         CLOUDY    24  15  68 S3        30.32S
6HR MIN TEMP:  23; 6HR MAX TEMP:  26;

$$

LSZ147-162-060100-
LAKE SUPERIOR

STATION/POSITION TIME  TEMP    WIND        PRES    WAVE
                       AIR SEA DIR/SP/G            HT/PER
                 (UTC) (F)     (DEG/KT/KT) (MB)    (FT/S)
DEVILS ISLAND    0000   29     210/  8/ 10 1021.1F
SAXON HARBOR     2300   30                 1021.0
$$

LMZ867-665-643>646-060100-
LAKE MICHIGAN

STATION/POSITION TIME  TEMP    WIND        PRES    WAVE
                       AIR SEA DIR/SP/G            HT/PER
                 (UTC) (F)     (DEG/KT/KT) (MB)    (FT/S)
CHAMBERS ISLAND  2300  C1F1C2F2C3F3C4F4C5F5C6F6C7F7C8M1C9M2Ca!



USA.gov is the U.S. government's official web portal to all federal, state and local government web resources and services.